Lid_Strength_Index
16 16 15 15 15 14 14 14 14 14 14 11 10 10 9 9 10 11 11 11 11 11 11 10 11 11 11 11 11 11 11 11 10 10 10 10 9 9 9 9 9 9 9 9
18 15 15 16 14 13 13 13 14 13 13 10 10 9 9 9 9 10 10 10 10 10 10 11 11 11 10 10 10 9 10 10 10 10 10 10 10 9 9 9 9 9 9 9
19 17 16 16 14 14 14 13 13 14 11 10 10 10 9 9 9 9 10 10 10 10 10 10 10 10 10 10 9 9 10 10 10 9 9 9 9 9 9 10 9 9 9 9
18 17 19 15 12 13 13 13 12 11 11 10 9 9 9 9 9 9 9 10 10 10 10 10 10 10 10 10 10 10 10 10 10 10 10 10 10 10 10 10 10 9 10 10
18 18 16 15 14 14 14 14 11 11 10 10 10 9 9 9 9 9 9 9 10 9 10 10 10 10 10 10 10 10 10 10 10 9 10 10 10 10 10 10 10 10 10 10
18 19 19 15 13 12 12 15 12 11 11 10 10 11 10 9 9 9 9 9 10 10 11 10 11 10 10 10 10 10 10 10 10 10 10 10 11 11 11 11 11 11 12 12
19 18 16 13 12 13 16 14 12 11 11 11 10 9 9 9 9 9 9 10 10 10 10 10 10 10 10 10 10 10 10 10 10 11 11 11 12 11 12 12 12 13 13 12
19 19 19 12 13 15 12 12 11 11 11 11 10 10 10 9 10 10 10 10 10 11 11 10 10 10 10 10 10 10 11 11 12 12 12 13 13 13 13 13 13 13 12 12
16 15 12 12 12 11 11 11 11 11 11 11 11 10 10 10 10 10 10 10 10 11 11 10 10 9 10 11 10 11 11 12 12 13 13 13 13 13 13 13 13 13 12 12
14 12 12 11 11 11 10 10 10 10 10 10 11 11 11 11 11 11 11 11 11 11 11 11 10 9 10 11 11 11 12 12 13 12 14 14 13 13 13 13 13 12 12 11
14 13 12 12 11 10 10 10 10 10 10 10 11 11 11 12 12 11 11 11 10 10 10 11 10 10 11 11 11 12 12 13 14 14 14 14 14 13 12 12 12 12 11 10
14 12 12 13 11 10 11 10 10 10 10 10 11 11 11 12 11 12 12 12 11 11 10 11 11 11 11 11 11 12 13 13 13 14 14 14 14 14 13 12 12 11 10 9
11 12 12 13 12 10 11 11 11 10 10 10 11 11 11 12 12 11 12 11 11 11 11 11 11 11 11 11 11 12 13 14 13 14 14 14 14 15 15 14 13 12 10 8
11 13 13 13 13 12 11 10 9 10 10 10 10 11 11 12 11 12 12 11 11 11 11 11 11 11 11 12 12 13 12 13 14 14 13 14 14 15 15 15 15 14 11 9
13 13 11 12 13 13 12 12 12 11 11 11 10 11 11 12 12 12 12 11 11 11 11 11 12 12 11 12 13 13 13 13 14 13 13 14 14 14 14 15 14 14 12 11
13 12 13 13 12 13 12 12 12 12 11 11 11 11 11 11 12 12 12 11 12 12 12 11 11 11 12 12 14 14 12 12 13 13 14 14 14 14 15 15 14 14 13 12
14 14 14 15 13 13 13 11 12 11 11 11 11 12 12 12 13 13 12 11 11 11 11 11 12 12 12 13 14 13 13 12 13 14 14 14 14 14 14 14 14 14 12 11
11 11 12 12 12 12 13 12 12 11 11 11 11 12 13 13 12 12 12 12 12 12 11 12 12 13 13 14 14 13 14 13 14 14 14 14 14 14 14 14 14 13 12 11
11 12 11 12 12 12 12 13 12 11 11 11 12 13 12 12 12 12 12 12 12 13 13 12 11 13 14 13 14 13 13 14 14 14 14 14 14 14 14 14 14 13 12 11
13 12 12 12 12 12 12 12 12 12 12 12 12 12 12 12 12 12 12 12 11 11 12 11 12 14 14 12 12 13 14 14 14 14 14 14 14 14 14 14 14 13 12 11
13 13 13 13 13 12 12 11 12 12 12 11 11 11 12 12 11 11 13 13 13 11 12 10 13 13 13 12 13 13 14 14 14 14 14 15 15 14 14 14 14 13 12 11
13 13 13 13 13 12 12 12 11 11 11 11 11 11 11 12 12 11 11 11 12 10 10 13 13 12 12 12 14 14 14 14 14 14 14 14 15 14 14 14 14 13 12 11
13 13 13 13 13 12 12 11 11 11 11 11 11 11 11 11 11 11 12 12 11 10 12 13 11 10 10 14 13 14 14 15 14 14 14 14 14 14 14 14 14 13 13 11
13 13 13 13 12 12 12 12 11 11 11 11 10 10 10 11 11 10 10 9 9 10 12 12 10 10 11 14 14 14 15 15 15 14 14 14 14 14 14 13 13 13 12 11
13 14 13 12 12 12 12 12 11 11 11 11 11 10 10 9 9 10 9 9 8 11 12 9 9 10 14 14 14 15 15 15 14 14 14 14 14 14 13 13 13 13 13 12
14 14 13 12 12 12 12 11 12 11 11 11 10 10 10 10 9 10 9 9 11 11 12 11 11 13 14 14 15 15 15 15 14 15 14 14 14 14 13 13 13 13 12 12
14 13 13 13 13 12 11 11 12 11 11 10 11 10 10 10 10 10 9 11 11 13 12 12 11 13 14 14 15 15 15 15 14 14 15 14 14 14 13 13 13 12 12 12